Weather in Pervomayskiy

Russia / Saratov Oblast     51°26′29″N   43°10′08″E
temp.,
°C
wind,
m/s
gust,
m/s
humid.,
%
clouds,
%
prec.,
mm/h
press.,
hPa
HPBL,
m
23 september, thu
thu2301:00+10w358499 0.0 1014268
04:00+7wsw338630 0.0 101452
07:00+6sw2288100 0.0 101538
10:00+10s2266100 0.0 1015443
13:00+13sw2351100 0.0 10141238
16:00+14se1248100 0.0 10131439
19:00+10ese3569100 0.0 1013182
22:00+10sse2373100 0.0 1013181
24 september, fri
fri2401:00+10sw1172100 0.0 101333
04:00+7wsw117734 0.0 101310
07:00+7ese117788 0.0 101310
10:00+11sw2261100 0.0 1012374
13:00+14sse2249100 0.0 10111122
16:00+15s344442 0.0 10101631
19:00+13ssw2253100 0.0 100928
22:00+12se2457100 0.0 100989
25 september, sat
sat2501:00+11sse495898 0.0 1008322
04:00+10se3666100 0.0 1008170
07:00+10se3668100 0.0 1007197
10:00+12sse3465100 0.0 1008447
13:00+15ssw3450100 0.1 10071459
16:00+12sw6660100 0.1 1009416
19:00+10sw348398 0.2 1010190
22:00+10w2382100 0.3 1011151
26 september, sun
sun2601:00+10w2483100 0.0 1011216
04:00+9w248554 0.0 1011125
07:00+7wsw239095 0.0 101149
10:00+10wsw3472100 0.0 1010305
13:00+12sw3568100 0.1 1009595
16:00+11wsw4575100 0.4 1008459
19:00+9sw0189100 1.1 1008104
22:00+9n2393100 3.3 1007171
27 september, mon
mon2701:00+9nnw4891100 2.2 1008302
04:00+9n598894 2.6 1010305
07:00+7nnw499596 0.1 1011206
10:00+10n4885100 0.2 1013474
13:00+14n675957 0.1 10141444
16:00+12n7865100 0.3 10161529
19:00+9n5980100 0.0 1017471
22:00+9n5887100 0.1 1018598